[[{"header":{"parameterUnit":"m.s-1","parameterCategory":1,"la1":30.2991,"la2":30.254,"lo1":-89.0895,"lo2":-89.0444,"dy":0.0017,"dx":0.0017,"nx":28,"ny":28,"refTime":"2024-05-13T03:00:00:Z","depth":0,"parameterNumber":2,"parameterNumberName":"U-component_of_WINDS"},"data":[0,0,0,0,0,0,0,0,0,0,0,0,0,0,0,0,0,0,0,0,0,0,0,0,0,0,0,0,0,0,0,0,0,0,0,0,0,0,0,0,0,0,0,0,0,0,0,0,0,0,0,0,0,0,0,0,0,0,1.54,1.5401,0,1.5518,1.5519,1.552,1.5528,1.5526,1.5525,1.5524,1.565,1.5655,1.5659,0,0,0,0,0,0,0,0,0,0,0,0,0,1.5187,1.5191,1.5399,1.5401,1.5402,1.5517,1.5519,1.5521,1.5528,1.5526,1.5525,1.5523,1.5649,1.5654,1.566,0,0,0,0,0,0,0,0,0,0,0,0,0,1.529,1.5192,1.5399,1.542,1.5423,1.5517,1.5519,1.5521,1.5528,1.5526,1.5524,1.5522,1.5647,1.5654,1.566,1.5744,0,0,1.5682,1.5685,0,0,0,0,0,0,0,0,1.5284,1.5298,1.5415,1.5419,1.5422,1.5506,1.549,1.5596,1.5529,1.5488,1.5524,1.5521,1.5604,1.5614,1.5641,1.575,1.5755,1.5682,1.5686,1.5689,1.5691,0,0,0,0,0,0,0,1.5277,1.5293,1.5446,1.5417,1.5421,1.5425,1.5438,1.5511,1.5556,1.5492,1.5493,1.5506,1.5606,1.5634,1.5644,1.5757,1.5682,1.5688,1.5692,1.5695,1.5942,1.5945,0,0,0,0,0,0,1.5265,1.5287,1.5443,1.545,1.5346,1.5431,1.5445,1.5481,1.5556,1.5565,1.5508,1.5506,1.5624,1.5636,1.5649,1.5752,1.5689,1.5696,1.57,1.594,1.5943,1.5946,0,0,0,0,0,0,1.526,1.5279,1.5438,1.5369,1.5389,1.5437,1.5477,1.5484,1.5513,1.5568,1.5576,1.5528,1.5623,1.5639,1.572,1.5757,1.5699,1.5705,1.5937,1.5941,1.5944,1.5959,0,0,0,0,0,0,1.5254,1.5277,1.5307,1.5369,1.5393,1.5505,1.548,1.5488,1.5524,1.5523,1.5589,1.5598,1.5622,1.571,1.5727,1.5765,1.5711,1.5934,1.5939,1.5943,1.5956,1.5963,1.5969,0,0,0,0,0,1.5247,1.5308,1.5309,1.5328,1.5431,1.5507,1.5521,1.5546,1.5527,1.5559,1.5595,1.5596,1.575,1.5718,1.5738,1.5778,1.5932,1.5938,1.5943,1.5953,1.5962,1.5969,0,0,0,0,0,0,1.5251,1.5316,1.5318,1.5401,1.5448,1.5508,1.5549,1.5554,1.5609,1.5606,1.5636,1.5651,1.5732,1.5764,1.5727,1.5864,1.5839,1.5849,1.584,1.5849,1.5856,1.5846,1.5717,0,0,0,0,0,1.5261,1.5315,1.537,1.5438,1.5461,1.5501,1.5535,1.555,1.5602,1.5622,1.5663,1.5715,1.5775,1.5814,1.5872,1.5961,1.5976,1.5999,1.6005,1.6011,1.6019,1.607,1.6081,1.5963,1.5963,1.5963,0,0,1.5283,1.5325,1.5358,1.544,1.5478,1.5536,1.5518,1.558,1.5623,1.5632,1.5711,1.5743,1.5803,1.5888,1.5928,1.5917,1.6055,1.6018,1.6021,1.6027,1.6076,1.6087,1.6097,1.5967,1.5966,1.5966,0,0,1.5352,1.5389,1.545,1.5489,1.5548,1.5574,1.5589,1.5649,1.567,1.575,1.5758,1.5812,1.5914,1.5957,1.5992,1.608,1.6084,1.6098,1.6133,1.6182,1.6192,1.62,1.6233,1.6244,1.6106,1.6106,1.6106,0,1.5373,1.5458,1.5482,1.5543,1.558,1.5589,1.5653,1.569,1.5765,1.5791,1.5778,1.5907,1.5948,1.6045,1.6066,1.6094,1.6113,1.609,1.6188,1.6197,1.6205,1.6236,1.6248,1.6107,1.6107,1.6107,1.6107,0,1.5481,1.554,1.5583,1.5653,1.5695,1.5757,1.5792,1.5832,1.5844,1.5873,1.5955,1.6005,1.6074,1.6098,1.6111,1.6197,1.6189,1.6181,1.6157,1.6217,1.6247,1.6259,1.6109,1.6109,1.6108,1.6108,0,0,1.5555,1.5639,1.5654,1.5687,1.5753,1.58,1.5864,1.593,1.5964,1.6017,1.6072,1.6159,1.6153,1.6193,1.6211,1.6255,1.6323,1.6243,1.6244,1.6256,1.6423,1.6428,1.6441,1.6326,1.6328,1.633,1.6418,0,1.5632,1.5743,1.5768,1.5864,1.5921,1.5932,1.5988,1.6036,1.6065,1.6119,1.6152,1.6213,1.62,1.6224,1.6268,1.6305,1.6357,1.6299,1.638,1.6382,1.6364,1.6457,1.6462,1.6542,1.643,1.6432,1.6433,0,1.5736,1.579,1.5892,1.5952,1.5976,1.6026,1.6089,1.614,1.6195,1.6214,1.6259,1.6273,1.6342,1.6315,1.6412,1.6373,1.6408,1.6431,1.6435,1.6444,1.6411,1.6468,1.6568,1.658,1.6452,1.645,1.6449,0,1.5781,1.5879,1.5953,1.598,1.6052,1.6087,1.6119,1.6172,1.6211,1.6267,1.6293,1.6358,1.6393,1.6444,1.6476,1.6453,1.6572,1.6546,1.659,1.659,1.6615,1.6613,1.6722,1.6637,1.6637,1.6636,1.6636,0,1.5865,1.5927,1.5974,1.6019,1.609,1.6119,1.6189,1.6221,1.6269,1.6323,1.6338,1.6388,1.6427,1.6484,1.651,1.6588,1.6604,1.6622,1.6628,1.6621,1.6619,1.6644,1.6639,1.664,1.6639,1.6638,1.6638,0,1.5926,1.5959,1.6041,1.6102,1.6119,1.6169,1.6223,1.6269,1.6298,1.6367,1.6385,1.6432,1.65,1.6537,1.6623,1.664,1.6727,1.6731,1.6708,1.6711,1.6753,1.6749,1.6883,1.6902,1.6803,1.6804,1.6805,0,1.5977,1.6025,1.6091,1.6127,1.6159,1.6218,1.6257,1.6289,1.633,1.6398,1.6436,1.6504,1.6561,1.6669,1.6713,1.6779,1.6785,1.6827,1.6795,1.6786,1.6786,1.6783,1.6789,1.6833,1.6833,1.6834,1.6835,0,1.6064,1.6079,1.6134,1.6196,1.6242,1.6293,1.6343,1.6373,1.6413,1.6459,1.6527,1.6571,1.6658,1.6727,1.6796,1.6832,1.6841,1.6845,1.6859,1.6852,1.6837,1.6846,1.6724,1.6841,1.6841,1.684,1.684,1.684,1.6123,1.6166,1.622,1.6282,1.6323,1.637,1.6416,1.6452,1.6509,1.6581,1.6597,1.667,1.6727,1.6822,1.6859,1.6919,1.6911,1.693,1.6936,1.694,1.6942,1.6827,1.6932,1.6931,1.6931,1.6931,1.6931,0,1.6211,1.6246,1.6303,1.6372,1.6422,1.6424,1.6481,1.6522,1.6586,1.6637,1.6692,1.6773,1.684,1.6889,1.6958,1.6996,1.7002,1.7013,1.7011,1.702,1.6945,1.6926,1.7007,1.7007,1.7007,1.7007,1.7007,1.7007,1.6263,1.6337,1.6359,1.6455,1.649,1.656,1.6593,1.6637,1.6678,1.6767,1.6822,1.6853,1.6905,1.6978,1.704,1.7054,1.7079,1.709,1.7103,1.7033,1.7025,1.7017,1.6999,1.7095,1.7095,1.7173,1.7174,1.7174]},{"header":{"parameterUnit":"m.s-1","parameterCategory":1,"la1":30.2991,"la2":30.254,"lo1":-89.0895,"lo2":-89.0444,"dy":0.0017,"dx":0.0017,"nx":28,"ny":28,"refTime":"2024-05-13T03:00:00:Z","depth":0,"parameterNumber":3,"parameterNumberName":"V-component_of_WINDS"},"data":[0,0,0,0,0,0,0,0,0,0,0,0,0,0,0,0,0,0,0,0,0,0,0,0,0,0,0,0,0,0,0,0,0,0,0,0,0,0,0,0,0,0,0,0,0,0,0,0,0,0,0,0,0,0,0,0,0,0,1.9377,1.938,0,1.9578,1.958,1.9583,1.964,1.9639,1.9638,1.9637,1.9841,1.9847,1.9854,0,0,0,0,0,0,0,0,0,0,0,0,0,1.9044,1.905,1.9377,1.938,1.9382,1.9578,1.958,1.9583,1.9641,1.9639,1.9638,1.9637,1.9839,1.9847,1.9854,0,0,0,0,0,0,0,0,0,0,0,0,0,1.9211,1.9052,1.9377,1.9435,1.9442,1.9577,1.958,1.9584,1.9641,1.9639,1.9638,1.9636,1.9837,1.9846,1.9855,1.9947,0,0,1.9885,1.9889,0,0,0,0,0,0,0,0,1.9201,1.9223,1.9424,1.9431,1.9439,1.9583,1.9538,1.9706,1.9641,1.9565,1.9637,1.9635,1.9756,1.9772,1.9814,1.9957,1.9966,1.9886,1.9892,1.9896,1.9898,0,0,0,0,0,0,0,1.919,1.9215,1.9457,1.9426,1.9436,1.945,1.9472,1.957,1.9667,1.9572,1.9576,1.9599,1.976,1.9804,1.9819,1.9969,1.9885,1.9894,1.99,1.9904,2.02,2.0202,0,0,0,0,0,0,1.9168,1.9205,1.945,1.9463,1.9314,1.9458,1.9482,1.9538,1.9666,1.9684,1.9601,1.9601,1.9788,1.9807,1.9826,1.9944,1.9896,1.9905,1.991,2.0198,2.02,2.0203,0,0,0,0,0,0,1.9161,1.919,1.9442,1.9335,1.9368,1.9465,1.9527,1.9543,1.9587,1.9688,1.9706,1.9628,1.9788,1.9813,1.9918,1.9952,1.9909,1.9918,2.0195,2.0199,2.0201,2.0179,0,0,0,0,0,0,1.9151,1.9187,1.9222,1.9335,1.9374,1.953,1.953,1.9548,1.9604,1.9607,1.9718,1.9735,1.9789,1.9903,1.9927,1.9965,1.9925,2.0193,2.0197,2.02,2.0177,2.0181,2.0185,0,0,0,0,0,1.9139,1.9207,1.9224,1.9253,1.9421,1.9532,1.9554,1.9614,1.9606,1.9643,1.9709,1.9732,1.9944,1.9913,1.9941,1.9982,2.0191,2.0196,2.02,2.0176,2.0181,2.0185,0,0,0,0,0,0,1.9095,1.9223,1.9243,1.935,1.943,1.9541,1.959,1.9617,1.97,1.9699,1.977,1.9795,1.9895,1.9949,1.9912,2.0079,2.0068,2.0078,2.004,2.0045,2.0049,2.0034,1.9933,0,0,0,0,0,1.9098,1.9177,1.9285,1.9369,1.9408,1.9492,1.9543,1.9583,1.9668,1.9702,1.9775,1.9856,1.9942,1.9996,2.008,2.0185,2.0211,2.0227,2.0231,2.0233,2.0242,2.0303,2.0312,2.0218,2.0218,2.0218,0,0,1.9104,1.9184,1.923,1.9362,1.9429,1.951,1.952,1.9605,1.9667,1.9714,1.9819,1.9875,1.9971,2.0077,2.0127,2.0124,2.0274,2.0239,2.024,2.0248,2.0309,2.0318,2.0326,2.0221,2.022,2.022,0,0,1.9158,1.9226,1.9304,1.9371,1.9472,1.9528,1.9546,1.9655,1.9695,1.9801,1.9839,1.9913,2.0057,2.0125,2.0178,2.0259,2.0284,2.0285,2.0304,2.0363,2.037,2.0377,2.0408,2.0418,2.0292,2.0292,2.0292,0,1.9153,1.9277,1.9341,1.9425,1.9483,1.9531,1.9612,1.9673,1.9796,1.9835,1.9831,2.0015,2.0083,2.0206,2.0226,2.0267,2.0292,2.0273,2.0364,2.0372,2.0379,2.041,2.0421,2.0292,2.0292,2.0292,2.0292,0,1.9267,1.9353,1.9405,1.9524,1.9587,1.9669,1.9745,1.9802,1.9836,1.9892,2.0,2.0084,2.0186,2.0218,2.0252,2.0347,2.0343,2.035,2.0341,2.0387,2.0417,2.0428,2.0291,2.0291,2.0292,2.0292,0,0,1.9298,1.9453,1.9471,1.9527,1.9642,1.971,1.9794,1.9896,1.9944,2.0027,2.01,2.0223,2.0231,2.0292,2.0334,2.0385,2.0447,2.0387,2.0391,2.0397,2.0559,2.0554,2.0566,2.0464,2.0466,2.0468,2.0552,0,1.9368,1.9522,1.9582,1.9707,1.9788,1.9836,1.991,1.9989,2.0044,2.0121,2.0181,2.0268,2.0271,2.0309,2.0362,2.0428,2.0481,2.0423,2.0534,2.0537,2.051,2.0581,2.0576,2.065,2.0563,2.0565,2.0567,0,1.947,1.9556,1.9689,1.9797,1.9833,1.9899,1.9998,2.007,2.0161,2.0198,2.0266,2.0306,2.0397,2.0381,2.0509,2.0468,2.0517,2.0556,2.0561,2.0574,2.0555,2.0598,2.0676,2.0687,2.0585,2.0584,2.0583,0,1.9481,1.963,1.973,1.9776,1.9904,1.9949,2.0004,2.0094,2.0152,2.0238,2.0276,2.0371,2.0424,2.0497,2.0561,2.0544,2.0683,2.0672,2.0717,2.0715,2.0745,2.0742,2.0832,2.0773,2.0773,2.0773,2.0773,0,1.9554,1.9634,1.9737,1.9799,1.9891,1.9959,2.0048,2.0107,2.0186,2.026,2.0307,2.0375,2.0455,2.0534,2.0585,2.0684,2.0706,2.0739,2.0752,2.0736,2.0732,2.077,2.0767,2.0776,2.0775,2.0775,2.0774,0,1.9582,1.9655,1.9767,1.9879,1.991,1.9972,2.0069,2.0131,2.0188,2.0281,2.0307,2.0397,2.0493,2.0564,2.0687,2.0722,2.0828,2.084,2.0797,2.0804,2.0845,2.0841,2.0964,2.0984,2.091,2.091,2.0911,0,1.9624,1.9687,1.9807,1.9861,1.9916,2.0001,2.0061,2.0131,2.0192,2.0302,2.0351,2.045,2.0533,2.0683,2.076,2.0855,2.0871,2.0907,2.0885,2.0868,2.0874,2.087,2.0877,2.091,2.0911,2.0911,2.0912,0,1.9692,1.9725,1.981,1.9908,1.9978,2.0058,2.0139,2.018,2.0265,2.0331,2.043,2.0494,2.0622,2.072,2.0823,2.088,2.0911,2.0918,2.0934,2.0919,2.0892,2.0909,2.0807,2.0915,2.0915,2.0914,2.0914,2.0914,1.973,1.9789,1.9884,1.9977,2.0046,2.0121,2.0185,2.0252,2.0336,2.0445,2.0481,2.0584,2.0675,2.0817,2.0875,2.0957,2.0957,2.0979,2.0985,2.099,2.099,2.0878,2.0976,2.0976,2.0976,2.0976,2.0976,0,1.9802,1.9865,1.995,2.0063,2.0137,2.016,2.0251,2.0312,2.0402,2.0485,2.0566,2.0681,2.0777,2.0861,2.0961,2.101,2.1027,2.1034,2.1032,2.1045,2.0983,2.096,2.1019,2.1019,2.1019,2.1019,2.1019,2.1019,1.9848,1.995,1.9995,2.0132,2.0195,2.0297,2.0347,2.0417,2.0484,2.061,2.0691,2.0745,2.083,2.0936,2.1026,2.1048,2.1084,2.1088,2.1114,2.1054,2.1049,2.1044,2.1023,2.1094,2.1094,2.117,2.117,2.1171]}]]